When you browse on this site, cookies collect data to enhance your experience and personalize the content and advertising you see.
Visit our Privacy Policy to learn more. By continuing to use the site, you agree to this use of cookies and data.
  • In Austria
  • List of Countries
  • For 7 days
  • Water Temperature
  • Satellite Maps
  • Weather Map
  • News
  • Weather Widgets
  • user-avatar
    Login

    Hourly Weather Klagenfurt

    Today, 22 May, Wednesday

    Time Temperature Precipitation Wind Pressure Humidity
    00:00 +9°C° 0.2 mm 1 mps 686 mmHg 96%
    01:00 +10°C° 0 mm 1 mps 686 mmHg 96%
    02:00 +10°C° 0.1 mm 1 mps 686 mmHg 96%
    03:00 +9°C° 0.1 mm 1 mps 686 mmHg 96%
    04:00 +9°C° 0.1 mm 1 mps 687 mmHg 96%
    05:00 +10°C° 0.1 mm 1 mps 687 mmHg 93%
    06:00 +11°C° 0.1 mm 1 mps 687 mmHg 91%
    07:00 +12°C° 0 mm 1 mps 687 mmHg 90%
    08:00 +13°C° 0.3 mm 1 mps 688 mmHg 86%
    09:00 +14°C° 0.3 mm 1 mps 688 mmHg 82%
    10:00 +15°C° 0.3 mm 1 mps 689 mmHg 78%
    11:00 +16°C° 0.7 mm 1 mps 689 mmHg 76%
    12:00 +18°C° 0.7 mm 1 mps 689 mmHg 74%
    13:00 +19°C° 0.7 mm 1 mps 689 mmHg 72%
    14:00 +18°C° 1.1 mm 1 mps 689 mmHg 75%
    15:00 +16°C° 1.1 mm 1 mps 689 mmHg 78%
    16:00 +16°C° 1.1 mm 1 mps 689 mmHg 81%
    17:00 +15°C° 0.9 mm 1 mps 689 mmHg 83%
    18:00 +14°C° 0.9 mm 1 mps 689 mmHg 86%
    19:00 +13°C° 0.9 mm 1 mps 689 mmHg 88%
    20:00 +12°C° 0.2 mm 1 mps 689 mmHg 88%
    21:00 +11°C° 0.2 mm 1 mps 689 mmHg 89%
    22:00 +10°C° 0.2 mm 1 mps 690 mmHg 90%
    23:00 +10°C° 0.1 mm 1 mps 690 mmHg 90%

    Tomorrow, 23 May, Thursday

    Time Temperature Precipitation Wind Pressure Humidity
    00:00 +9°C° 0.1 mm 1 mps 690 mmHg 91%
    01:00 +9°C° 0.1 mm 1 mps 690 mmHg 91%
    02:00 +8°C° 0 mm 1 mps 690 mmHg 91%
    03:00 +8°C° 0 mm 1 mps 689 mmHg 91%
    04:00 +7°C° 0 mm 1 mps 689 mmHg 91%
    05:00 +9°C° 0 mm 1 mps 690 mmHg 88%
    06:00 +10°C° 0 mm 1 mps 690 mmHg 84%
    07:00 +11°C° 0 mm 1 mps 690 mmHg 80%
    08:00 +14°C° 0 mm 1 mps 691 mmHg 69%
    09:00 +18°C° 0 mm 1 mps 691 mmHg 58%
    10:00 +21°C° 0 mm 1 mps 692 mmHg 47%
    11:00 +22°C° 0.2 mm 1 mps 692 mmHg 46%
    12:00 +20°C° 0.2 mm 0 mps 692 mmHg 46%
    13:00 +21°C° 0.2 mm 0 mps 691 mmHg 45%
    14:00 +22°C° 0.3 mm 1 mps 691 mmHg 47%
    15:00 +22°C° 0.3 mm 1 mps 691 mmHg 49%
    16:00 +21°C° 0.3 mm 1 mps 690 mmHg 51%
    17:00 +19°C° 0.4 mm 1 mps 690 mmHg 62%
    18:00 +16°C° 0.4 mm 1 mps 690 mmHg 73%
    19:00 +14°C° 0.4 mm 1 mps 689 mmHg 84%
    20:00 +13°C° 0.1 mm 1 mps 689 mmHg 87%
    21:00 +10°C° 0.1 mm 0 mps 690 mmHg 89%
    22:00 +9°C° 0.1 mm 0 mps 690 mmHg 92%
    23:00 +8°C° 0 mm 0 mps 690 mmHg 93%

    Day after tomorrow, 24 May, Friday

    Time Temperature Precipitation Wind Pressure Humidity
    00:00 +8°C° 0 mm 0 mps 690 mmHg 93%
    01:00 +7°C° 0 mm 0 mps 690 mmHg 94%
    02:00 +7°C° 0 mm 0 mps 689 mmHg 94%
    03:00 +7°C° 0 mm 0 mps 689 mmHg 94%
    04:00 +7°C° 0 mm 0 mps 689 mmHg 94%
    05:00 +8°C° 0 mm 0 mps 689 mmHg 90%
    06:00 +10°C° 0 mm 0 mps 689 mmHg 85%
    07:00 +12°C° 0 mm 0 mps 690 mmHg 80%
    08:00 +14°C° 0 mm 0 mps 690 mmHg 69%
    09:00 +17°C° 0 mm 0 mps 690 mmHg 59%
    10:00 +19°C° 0 mm 0 mps 690 mmHg 48%
    11:00 +20°C° 0.1 mm 0 mps 690 mmHg 46%
    12:00 +21°C° 0.1 mm 0 mps 690 mmHg 45%
    13:00 +24°C° 0.1 mm 1 mps 690 mmHg 43%
    14:00 +23°C° 0.3 mm 1 mps 689 mmHg 46%
    15:00 +22°C° 0.3 mm 1 mps 689 mmHg 49%
    16:00 +21°C° 0.3 mm 1 mps 688 mmHg 52%
    17:00 +19°C° 0.3 mm 1 mps 688 mmHg 62%
    18:00 +16°C° 0.3 mm 1 mps 687 mmHg 72%
    19:00 +14°C° 0.3 mm 0 mps 687 mmHg 82%
    20:00 +12°C° 0.1 mm 0 mps 687 mmHg 85%
    21:00 +11°C° 0.1 mm 0 mps 687 mmHg 88%
    22:00 +10°C° 0.1 mm 0 mps 688 mmHg 91%
    23:00 +9°C° 0 mm 0 mps 687 mmHg 92%

    25 May, Saturday

    Time Temperature Precipitation Wind Pressure Humidity
    00:00 +9°C° 0 mm 0 mps 687 mmHg 93%
    01:00 +8°C° 0 mm 0 mps 687 mmHg 94%
    02:00 +8°C° 0 mm 0 mps 687 mmHg 94%
    03:00 +8°C° 0 mm 0 mps 687 mmHg 94%
    04:00 +8°C° 0 mm 0 mps 687 mmHg 94%
    05:00 +9°C° 0 mm 0 mps 687 mmHg 90%
    06:00 +11°C° 0 mm 0 mps 688 mmHg 85%
    07:00 +13°C° 0 mm 0 mps 688 mmHg 80%
    08:00 +15°C° 0 mm 0 mps 689 mmHg 71%
    09:00 +18°C° 0 mm 0 mps 689 mmHg 63%
    10:00 +22°C° 0 mm 1 mps 690 mmHg 54%
    11:00 +22°C° 0.8 mm 1 mps 689 mmHg 58%
    12:00 +22°C° 0.8 mm 1 mps 689 mmHg 61%
    13:00 +20°C° 0.8 mm 2 mps 689 mmHg 65%
    14:00 +20°C° 1.1 mm 2 mps 689 mmHg 68%
    15:00 +20°C° 1.1 mm 2 mps 688 mmHg 71%
    16:00 +20°C° 1.1 mm 1 mps 688 mmHg 74%
    17:00 +19°C° 0.4 mm 1 mps 688 mmHg 79%
    18:00 +18°C° 0.4 mm 1 mps 688 mmHg 83%
    19:00 +15°C° 0.4 mm 1 mps 688 mmHg 88%
    20:00 +14°C° 0.1 mm 1 mps 688 mmHg 90%
    21:00 +13°C° 0.1 mm 1 mps 688 mmHg 92%
    22:00 +12°C° 0.1 mm 1 mps 688 mmHg 94%
    23:00 +12°C° 0 mm 1 mps 688 mmHg 94%

    26 May, Sunday

    Time Temperature Precipitation Wind Pressure Humidity
    00:00 +11°C° 0 mm 1 mps 688 mmHg 94%
    01:00 +11°C° 0 mm 1 mps 688 mmHg 94%
    02:00 +11°C° 0 mm 1 mps 688 mmHg 94%
    03:00 +10°C° 0 mm 1 mps 687 mmHg 94%
    04:00 +10°C° 0 mm 1 mps 687 mmHg 94%
    05:00 +11°C° 0 mm 1 mps 688 mmHg 88%
    06:00 +12°C° 0 mm 0 mps 688 mmHg 83%
    07:00 +14°C° 0 mm 0 mps 689 mmHg 78%
    08:00 +16°C° 0 mm 0 mps 689 mmHg 68%
    09:00 +19°C° 0 mm 0 mps 690 mmHg 57%
    10:00 +23°C° 0 mm 1 mps 690 mmHg 46%
    11:00 +24°C° 0 mm 1 mps 690 mmHg 44%
    12:00 +25°C° 0 mm 1 mps 690 mmHg 43%
    13:00 +25°C° 0 mm 1 mps 690 mmHg 41%
    14:00 +24°C° 0.2 mm 1 mps 689 mmHg 45%
    15:00 +24°C° 0.2 mm 1 mps 689 mmHg 49%
    16:00 +23°C° 0.2 mm 1 mps 689 mmHg 53%
    17:00 +21°C° 0.6 mm 1 mps 688 mmHg 64%
    18:00 +19°C° 0.6 mm 1 mps 688 mmHg 75%
    19:00 +16°C° 0.6 mm 1 mps 688 mmHg 85%
    20:00 +15°C° 0.4 mm 1 mps 688 mmHg 88%
    21:00 +13°C° 0.4 mm 1 mps 688 mmHg 90%
    22:00 +11°C° 0.4 mm 0 mps 688 mmHg 92%
    23:00 +12°C° 0.1 mm 1 mps 688 mmHg 92%

    27 May, Monday

    Time Temperature Precipitation Wind Pressure Humidity
    00:00 +12°C° 0.1 mm 1 mps 688 mmHg 93%
    01:00 +12°C° 0.1 mm 1 mps 688 mmHg 93%
    02:00 +12°C° 0.1 mm 1 mps 687 mmHg 94%
    03:00 +12°C° 0.1 mm 1 mps 687 mmHg 94%
    04:00 +12°C° 0.1 mm 1 mps 687 mmHg 95%
    05:00 +12°C° 0.3 mm 1 mps 687 mmHg 94%
    06:00 +13°C° 0.3 mm 1 mps 687 mmHg 93%
    07:00 +14°C° 0.3 mm 1 mps 687 mmHg 91%
    08:00 +14°C° 1.5 mm 1 mps 687 mmHg 91%
    09:00 +14°C° 1.5 mm 1 mps 687 mmHg 92%
    10:00 +14°C° 1.5 mm 1 mps 686 mmHg 92%
    11:00 +14°C° 1.3 mm 1 mps 686 mmHg 92%
    12:00 +14°C° 1.3 mm 1 mps 686 mmHg 92%
    13:00 +14°C° 1.3 mm 1 mps 686 mmHg 92%
    14:00 +13°C° 1.4 mm 0 mps 685 mmHg 92%
    15:00 +13°C° 1.4 mm 0 mps 685 mmHg 92%
    16:00 +13°C° 1.4 mm 0 mps 685 mmHg 92%
    17:00 +13°C° 1.2 mm 0 mps 684 mmHg 93%
    18:00 +12°C° 1.2 mm 0 mps 684 mmHg 94%
    19:00 +12°C° 1.2 mm 0 mps 684 mmHg 95%
    20:00 +11°C° 0.4 mm 0 mps 684 mmHg 96%
    21:00 +11°C° 0.4 mm 0 mps 684 mmHg 96%
    22:00 +10°C° 0.4 mm 0 mps 684 mmHg 97%
    23:00 +10°C° 0.1 mm 0 mps 683 mmHg 97%
    Show more